Current Version              Previous Version:    01  02  03  04  05  06  07  08  09  10  11  12  13  14  15  16  17  18  19  20  21  22  23  24  25  26  27  28  29  30  
   31  32  33  34  35  36  37  38  39  40  41  42  43  44  45  46  47  48  49  50  51  52  53  54  55  56  57  58  59  60  

[Printable]
115
ASUS44 KLUB 161610
RWRTX
WEST TEXAS WEATHER ROUNDUP
NATIONAL WEATHER SERVICE LUBBOCK TX
1100 AM CDT WED APR 16 2014

NOTE: "FAIR" INDICATES FEW OR NO CLOUDS BELOW 12,000 FEET WITH NO
SIGNIFICANT WEATHER AND/OR OBSTRUCTIONS TO VISIBILITY.

TXZ004-006>008-010-012-014-016-OKZ002-161700-
TEXAS PANHANDLE/OKLAHOMA PANHANDLE

CITY           SKY/WX    TMP DP  RH WIND       PRES   REMARKS
AMARILLO       MOSUNNY   61  11  14 SW16      29.82S
BORGER         MOSUNNY   62  10  13 W7        29.83R
CANADIAN       MOSUNNY   60  13  16 SW13G20   29.84R
DALHART        PTSUNNY   62  24  23 NE22      29.85R
DUMAS          PTSUNNY   60  23  23 N17       29.83R
GUYMON         MOSUNNY   62  28  27 N24       29.82R
HEREFORD       MOSUNNY   66  11  12 SW13      29.83S
PAMPA          MOSUNNY   61  11  14 W16       29.85R
PERRYTON       PTSUNNY   60  20  21 CALM      29.83R
$$

TXZ026-029-035-045-048-161700-
SOUTHERN PANHANDLE/SOUTH PLAINS/ROLLING PLAINS

CITY           SKY/WX    TMP DP  RH WIND       PRES   REMARKS
CHILDRESS      MOSUNNY   62  17  17 SW23      29.89S
SEMINOLE       PTSUNNY   60  16  18 S12       29.90S
LUBBOCK        MOSUNNY   57  16  20 S15G26    29.87S
PLAINVIEW      SUNNY     57  16  19 SW20      29.85S
SNYDER         PTSUNNY   57  16  20 S22       29.94S
$$

TXZ052-054-060>062-072-078-127-140-154-169-161700-
PERMIAN BASIN/CONCHO VALLEY/BIG COUNTRY/EDWARDS PLATEAU

CITY           SKY/WX    TMP DP  RH WIND       PRES   REMARKS
ABILENE        SUNNY     58  22  24 S25G35    29.97R
BIG SPRING     MOSUNNY   61  21  21 S24G31    29.93S
BRADY            N/A     57  28  33 S21       30.02S
BROWNWOOD      SUNNY     57  27  30 S21G29    30.05S
JUNCTION       SUNNY     59  29  31 S16G24    30.04S
MIDLAND        MOSUNNY   62  20  19 S17       29.91R
ODESSA         SUNNY     62  16  16 S15       29.90S
SAN ANGELO     SUNNY     60  23  24 S16G26    29.99S
SONORA         SUNNY     59  28  31 S23       30.02R
SWEETWATER     MOSUNNY   58  18  20 S25G33    29.96R
WINK           SUNNY     61  16  17 SE12      29.88R
$$

TXZ055-058-074-075-080-082-161700-
FAR WEST/SOUTHWEST MOUNTAINS/TRANS PECOS

CITY           SKY/WX    TMP DP  RH WIND       PRES   REMARKS
ALPINE         MOSUNNY   72  22  15 SW13G18   30.00S
DRYDEN           N/A     59  20  22 E9        29.98R
EL PASO        MOSUNNY   63  16  16 S9        29.89S
FORT STOCKTON  SUNNY     69  17  13 SE12      29.89S
GUADALUPE PASS SUNNY     60  15  17 SW16      29.97S
MARFA          MOSUNNY   63  18  17 S9        30.01S
PECOS          SUNNY     62  18  18 E6        29.88S
PRESIDIO       FAIR      65  15  14 CALM      29.94S
$$

TXZ014-016-019-021>030-083-161700
TEXAS TECH WEST TEXAS MESONET/TEXAS PANHANDLE/NORTHERN SOUTH PLAINS

CITY           SKY/WX    TMP DP  RH WIND       PRES   REMARKS
ABERNATHY 5ENE   N/A     58  16  19 S17       29.88R
AMARILLO 9NNE    N/A     62  14  15 SW14      29.80F
AMARILLO 7SSE    N/A     63  14  14 SW13      29.84R
AMHERST 1NE      N/A     60  12  15 SW15      29.85F
BOOTLEG 11WNW    N/A     69  12  11 W16       29.85R
CANADIAN 6E      N/A     60  17  19 S17       29.84R
CHILDRESS 2NNE   N/A     61  17  18 S17       29.88F
CLARENDON 2WSW   N/A     59  15  17 S21       29.83F
CLAUDE 12SW      N/A     58  15  18 S14       29.83S
DIMMITT 2NE      N/A     59  15  17 SW14      29.84R
FLOYDADA 2NNE    N/A     56  14  18 S22       29.87S
FRIONA 2NE       N/A     68  10  10 W16       29.83S
GOODLETT 3W      N/A     62  19  18 S22       29.90S
HART 3N          N/A     58  19  21 SW17      29.84F
HEREFORD 2NW     N/A     67  12  11 W15       29.82S
MCLEAN 1E        N/A     58  16  19 S21       29.82R
MEMPHIS 1NE      N/A     62  15  16 S15       29.86F
MULESHOE 2SSW    N/A     67  10  10 SW13      29.84S
OLTON 6S         N/A     58  17  19 S17       29.85S
PALO DURO SP     N/A     62  15  16 S12       29.85R
PAMPA 2E         N/A     60  14  16 SW13      29.84R
PLAINVIEW 1S     N/A     56  17  20 SW18      29.85S
SILVERTON 7ESE   N/A     60  17  18 S17       29.86S
TULIA 2ENE       N/A     58  17  19 S22       29.83S
TURKEY 2WSW      N/A     61  17  17 S15       29.87R
UMBARGER 3NNE    N/A     62  14  15 SW10      29.84R
$$

TXZ033>036-039>041-045>048-161700
TEXAS TECH WEST TEXAS MESONET/SOUTH PLAINS

CITY           SKY/WX    TMP DP  RH WIND       PRES   REMARKS
AIKEN 3WSW       N/A     59  18  20 S22       29.87S
ANDREWS 2NE      N/A     60  13  16 S14       29.90R
ANTON 6SSW       N/A     60  17  19 S16       29.86F
BROWNFIELD 2S    N/A     58  15  18 S16       29.89S
DENVR CTY 7WNW   N/A     59  15  17 S12       29.88R
GAIL 2ESE        N/A     60  17  19 S16G26    29.91S
LAMESA 2SE       N/A     58  20  23 S16       29.91S
LEVELLAND 4S     N/A     59  13  16 S17       29.88R
LUBBOCK 3WNW     N/A     58  16  19 S15       29.88S
MORTON 1ENE      N/A     64  11  13 SW10      29.85S
ODONNELL 1N      N/A     58  15  18 S17       29.90F
PLAINS 3N        N/A     60  15  17 S12       29.88S
RALLS 1SE        N/A     58  16  19 SW21      29.90R
REESE CENTER     N/A     57  15  18 S20       29.87S
SEAGRAVES 1SW    N/A     59  16  18 S12       29.89S
SEMINOLE 2NNE    N/A     60  15  17 S12       29.89S
SLATON 2NE       N/A     58  16  19 S20       29.89S
SNYDER 3E        N/A     58  18  20 S23       29.92S
SUNDOWN 8SW      N/A     62  15  15 S13       29.87S
TAHOKA 3NNE      N/A     58  15  18 S20       29.89S
WOLFFORTH 6SSW   N/A     58  15  18 S20       29.88S
$$

TXZ031-032-036>038-042>044-161700-
TEXAS TECH WEST TEXAS MESONET/ROLLING PLAINS

CITY           SKY/WX    TMP DP  RH WIND       PRES   REMARKS
ASPERMONT 3NE    N/A     63  18  17 S18       29.94R
FLUVANNA 3WNW    N/A     57  17  20 S23       29.91S
GRAHAM 5SSW      N/A     57  15  18 S17       29.90F
GUTHRIE 10WSW    N/A     59  17  19 S18       29.91R
HASKELL 1NW      N/A     60  19  20 S22       29.94S
JAYTON 1SSE      N/A     60  17  18 S16       29.92S
KNOX CITY 3NW    N/A     62  17  17 S20       29.94F
LK A HENRY 1NW   N/A     62  18  18 S18       29.90S
NORTHFIELD 1S    N/A     61  17  18 S15       29.88F
ODELL 4ENE       N/A     59  21  22 S26       29.94F
PADUCAH 10SW     N/A     60  17  18 S24       29.89S
POST 1NE         N/A     59  15  18 S14       29.90R
RRING SPRGS 3N   N/A     58  17  20 S20       29.89R
SEYMOUR 3NW      N/A     60  23  23 S18       29.97R
SPUR 1W          N/A     58  15  18 S18       29.90S
WEINERT 2NNE     N/A     62  20  20 S21       29.95R
WHITE RVR 6NE    N/A     59  15  17 S20       29.89S
$$

TXZ052-054-060>062-072-078-127-140-154-169-161700-
TEXAS TECH WEST TEXAS MESONET/PERMIAN BASIN/
CONCHO VALLEY/BIG COUNTRY/EDWARDS PLATEAU

CITY           SKY/WX    TMP DP  RH WIND       PRES   REMARKS
COYANOSA 2N      N/A     69  17  13 SE6       29.88F
JUNCTION 1SSW    N/A     60  31  33 S12       30.04S
MERTZON 3NNE     N/A     59  27  29 S21       29.99R
SAN ANGELO 7NW   N/A     58  20  22 S17       29.99S
STRLNG CT 4WSW   N/A     60  25  26 SE18      29.96S
ST LAWRNCE 5SW   N/A     60  21  21 S25       29.93S
WALL 1E          N/A     60  25  25 S15       30.00S
$$

TXZ055-058-074-075-080-082-161700-
TEXAS TECH WEST TEXAS MESONET/FAR WEST/SOUTHWEST MOUNTAINS/TRANS PECOS

CITY           SKY/WX    TMP DP  RH WIND       PRES   REMARKS
PRSMN GAP BBNP   N/A     61  16  17 N8        29.96S
$$